Regional Weather Roundup
Issued by NWS

Home | Current Version | Previous Version | Text Only | Print | Product List | Glossary On
Versions: 1 2 3 4 5 6 7 8 9 10 11 12 13 14 15 16 17 18 19 20 21 22 23 24 25 26 27 28 29 30 31 32 33 34 35 36 37 38 39 40 41 42 43 44 45 46 47 48 49 50
000
ASUS45 KTFX 261419
RWRMT
MONTANA HOURLY WEATHER ROUNDUP
NATIONAL WEATHER SERVICE GREAT FALLS MT
719 AM MST FRI DEC 26 2014

NOTE: "FAIR" INDICATES FEW OR NO CLOUDS BELOW 12000 FEET WITH NO
SIGNIFICANT WEATHER AND/OR OBSTRUCTIONS TO VISIBILITY.

* THESE STATIONS ARE NOT UNDER NWS QUALITY CONTROL. THEY DO NOT
   REPORT WEATHER SUCH AS PRECIPITATION OR FOG.

MTZ001>007-043-261500-
WEST OF THE DIVIDE
CITY           SKY/WX    TMP DP  RH WIND       PRES   REMARKS
KALISPELL      FOG       23  21  92 W3        30.08R
MISSOULA       CLOUDY    25  21  85 CALM      30.10R
BUTTE          CLOUDY    12   9  88 S3        29.98R
MULLAN PASS    LGT SNOW  19  16  88 VRB3      29.96R VSB 2 1/2
* ESSEX        N/A       23  21  92 N/A        N/A
* HAMILTON APT PTCLDY    27  19  72 NW3       30.08R
* LIBBY APT    CLEAR     25  21  85 CALM      30.15R
* LINCOLN      N/A       22  18  85 S3G8       N/A
* LOOKOUT PASS N/A       22  19  88 NE4        N/A
* POLSON       N/A       25  24  96 N/A        N/A
* RONAN APT    MOCLDY    28  27  96 N/A        N/A
* SEELEY LAKE  N/A       20  18  92 N/A        N/A
* THOMP F APT  CLEAR     15   5  64 NW7G25     N/A   WCI   5
* YAAK HILL    N/A       27  24  88 N1         N/A
$$

MTZ008-052>055-261500-
SOUTHWEST MONTANA
CITY           SKY/WX    TMP DP  RH WIND       PRES   REMARKS
BOZEMAN        CLOUDY    12   9  88 CALM      30.03R
DILLON         CLOUDY    14   9  80 SW9       29.98R WCI   2
* W YELLOWSTON PTCLDY   -20 -28  65 N/A        N/A
* THREE FORKS  MOCLDY    14  14 100 N/A        N/A
* BOULDER HILL N/A       17   9  71 SW1        N/A
* MONIDA PASS  N/A       12   6  77 NW9        N/A
* RAYNOLDS PAS N/A        1 -40  12 N/A        N/A
* WHITEHALL    N/A       16  11  81 W2         N/A
* WISE RIVER   N/A       10   6  84 W3         N/A
$$

MTZ009>010-012-014-046-048-049-054-261500-
EAST SLOPES AND CENTRAL MONTANA
CITY           SKY/WX    TMP DP  RH WIND       PRES   REMARKS
CUT BANK       CLOUDY    18  14  84 N15       30.05R WCI   4
GREAT FALLS    CLOUDY    23  19  85 NW16G21   30.03R WCI  10
HELENA         CLOUDY    19  16  88 W3        30.04R
MALMSTROM AFB  CLOUDY    23  21  92 W9        30.06R WCI  13
* CONRAD       CLOUDY    21  19  92 W14G21     N/A   WCI   8
* DEARBORN     N/A       19  17  92 SE2        N/A
* EAST GLACIER N/A       17  14  88 E2         N/A
* MONARCH      N/A       19  11  71 W9         N/A   WCI   8
* PENDROY      N/A       18  17  96 VRB28G33    N/A   WCI  -1
* ROGERS PASS  N/A       17  14  88 N/A        N/A
* SWEET GRASS  N/A       17  17 100 VRB19G26    N/A   WCI   1
* WHITE SULPH  N/A       11   7  84 W1         N/A
$$

MTZ011-013-016-021-035-040-045-047-050-051-261500-
NORTH CENTRAL MONTANA
CITY           SKY/WX    TMP DP  RH WIND       PRES   REMARKS
HAVRE          CLOUDY    21  18  88 W7        30.05R WCI  12
LEWISTOWN      CLOUDY    18  10  71 E3        29.98R
* N BAR RANCH  CLOUDY    18  12  77 W6        29.96R WCI  10
* CHINOOK      CLOUDY    23  19  85 SW3       30.06R
* CHESTER      N/A       18  15  88 SW2        N/A
* DENTON       N/A       18  11  74 SE9        N/A   WCI   7
* GEYSER       N/A       21  13  71 SW9        N/A   WCI  11
* JUDITH GAP   N/A       14  14 100 N/A        N/A
* LOMA         N/A       19  15  84 NW2        N/A
$$

MTZ017>020-022>027-061-062-261500-
NORTHEAST MONTANA
CITY           SKY/WX    TMP DP  RH WIND       PRES   REMARKS
GLASGOW        MOCLDY    18  12  77 E10       30.07R WCI   6
GLENDIVE       CLOUDY    18  14  84 E6        30.10R WCI  10
JORDAN         MOCLDY    21  18  88 SW3       30.05R
SIDNEY         CLOUDY    12  10  92 CALM      30.16R
WOLF POINT     CLOUDY    12   9  88 NE7       30.12R WCI   1
* BEAVER HILL  N/A       18  13  81 SW8        N/A   WCI   8
* CIRCLE       N/A       22  18  85 N/A        N/A
* LINDSAY DVD  N/A       20  16  84 S2         N/A
* NAVAJO       N/A        7   4  87 SW2        N/A
* PLENTYWOOD A PTCLDY    12  10  92 S3        30.11R
* POPLAR APT   PTCLDY    10   7  88 E3        30.13R
* SACO         N/A       17  15  92 NE5        N/A   WCI   9
$$

MTZ028>042-056>058-261500-
SOUTHCENTRAL AND SOUTHEAST MONTANA
CITY           SKY/WX    TMP DP  RH WIND       PRES   REMARKS
BAKER          CLOUDY    19  14  81 SW7       30.08R WCI  10
BILLINGS       CLEAR      9   5  84 SW17      30.02R WCI  -9
LIVINGSTON     CLOUDY    12   7  80 NW6       29.99R WCI   2
MILES CITY     CLOUDY    21  18  88 SE3       30.08R
* BIG TIMBER A MOCLDY     5   1  83 CALM      30.00R
* FORSYTH APT  PTCLDY    16  12  84 SE6       30.07R WCI   7
* LAUREL APT   PTCLDY     5  -2  72 N/A        N/A
* ROUNDUP APT  CLEAR      3  -4  72 SW6        N/A   WCI  -8
* ALZADA       N/A       18  13  81 N2         N/A
* HYSHAM       N/A       18  13  81 W4         N/A
* LAME DEER    N/A      N/A N/A N/A N/A        N/A
* REED POINT   N/A        4   1  87 W3         N/A
$$

REGIONAL REPORTS...DAKOTAS
CITY           SKY/WX    TMP DP  RH WIND       PRES   REMARKS
WILLISTON      CLOUDY    12   9  88 N8        30.15R
DICKINSON      CLOUDY    18  12  77 NW3       30.08R
BEACH          CLOUDY    16  14  92 S3        30.09R
CROSBY         FOG        3   1  91 N6        30.17R WCI  -8
TIOGA          CLOUDY    10  10 100 NW8       30.15R WCI  -2
WATFORD CITY   CLOUDY    14  10  84 CALM      30.12R
BISMARCK       CLOUDY    12   9  88 NW12      30.17R WCI  -2
GRAND FORKS    CLOUDY    25  18  75 N9        30.14R WCI  16
FARGO          MOCLDY    23  18  81 N13       30.12R WCI  11
BUFFALO SD     PTCLDY    19  12  74 N8        30.01R WCI   9
RAPID CITY     CLOUDY    19  16  88 N12       30.07R WCI   6
$$

REGIONAL REPORTS...WYOMING/IDAHO/WASHINGTON
CITY           SKY/WX    TMP DP  RH WIND       PRES   REMARKS
GILLETTE       CLOUDY    18  12  77 N6        30.01R WCI  10
SHERIDAN       PTCLDY    16  12  84 CALM      30.02S
CODY           CLOUDY    18  16  92 CALM      29.97R
YELLOWSTONE LA MOCLDY    -8 -11  86 CALM      29.88R
SALMON         CLOUDY    19  16  88 CALM      30.06R
MULLAN PASS    LGT SNOW  19  16  88 VRB3      29.96S VSB 2 1/2
SAND POINT     CLEAR     23  23 100 CALM      30.17R
SPOKANE        FAIR      21  18  88 NE5       30.17R WCI  14
$$

REGIONAL REPORTS...ALBERTA
CITY           SKY/WX    TMP DP  RH WIND       PRES   REMARKS
CALGARY        FAIR      16  12  84 S3        30.04S
LETHBRIDGE     LGT SNOW  19  18  96 S8        30.11R WCI   9
MEDICINE HAT   CLOUDY    16  14  92 NW5       30.12R WCI   8
EDMONTON       N/A       -2  -6  83 SW3       30.06R
WATERTON GATE  N/A       18  16  92 S1         N/A
CARDSTON       N/A       19  18  96 NW3        N/A
MILK RIVER     N/A       18  16  92 N16        N/A   WCI   3
$$

REGIONAL REPORTS...SASKATCHEWAN
CITY           SKY/WX    TMP DP  RH WIND       PRES   REMARKS
SWIFT CURRENT  LGT SNOW   9   5  84 NE5       30.05R
REGINA         CLOUDY     1  -2  87 NW2       30.15S
VAL MARIE      N/A       19  18  96 E3         N/A
ASSINIBOIA     N/A        5   1  83 CALM       N/A
CORONACH       N/A        1   0  95 NW2        N/A

$$



USA.gov is the U.S. government's official web portal to all federal, state and local government web resources and services.